星链-30876 (STARLINK-30876 )

导读

**STARLINK-30876卫星摘要** STARLINK-30876是美国SpaceX星链计划的第二代低轨通信卫星,于2023年11月22日发射。属于星链v2.0 mini平台,运行在近地轨道,配备增强型相控阵天线和激光星间链路,支持高速低延迟宽带通信,为全球提供互联网接入服务。卫星采用氪离子推进,具备自主避碰能力,退役后会在大气层中完全销毁,减少空间碎片影响。作为大规模星座组网的一员,助力实现全球无缝网络覆盖,特别是偏远地区连接。

基本信息
目录编号:
58404
目录名称:
STARLINK-30876
国际标识:
2023-180C
轨道中心:
EARTH
卫星名称:
星链-30876
卫星全名:
星链-30876 (STARLINK-30876 )
卫星状态:
在轨 (已飞行1017 天)
发射日期:
2023-11-22 UTC
国别 :
美国 (US)
星等 :
--
轨道信息
数据来源 国际轨道数据
星历时间: 2026-09-04T01:45:46+0800
18小时前
查看轨道信息
半长轴: 6861.204km
偏心率: 0.0001305
轨道倾角: 43.003°
近地点辐角 266.563°
升交点赤经 127.264°
平近点角 93.508°
近地点: 482.171km
远地点: 483.963km
周期: 94.267分钟
每日圈数: 15.275741
详细信息
固有亮度:
5
最大亮度:
0.3
卫星平台:
Starlink v2.0 mini
覆盖范围:
全球
运营商:
太空探索技术公司
运营商所在国:
美国
制造商(研发单位):
太空探索技术公司
制造商所在国:
美国
使用方式:
暂无
卫星简介
星链(Starlink)计划是由太空探索技术公司(SpaceX)提出的一个巨型低轨卫星互联网星座项目,计划在2019年至2024年间在太空搭建由约1.2万颗卫星组成的“星链”网络,其中1584颗将部署在地球上空550千米处的近地轨道,并从2020年开始工作。该卫星仍在工作。
2D轨道图
3D轨道图
轨道高度分析图
轨道倾角分析图
轨道综合分析图
查看轨道综合分析图
交会数据列表
事件ID 空间交会对象 最接近时刻(TCA) 交会距离 交会风险概率(CRP) 交会风险指数(CRI) 操作
CDM_260906-033105-840406-341221
2026-09-06T
03:31:43+0000
1.050 km
极远距离
1.073109E-5 中风险 0.56
CDM_260906-050505-840406-341221
2026-09-06T
05:05:52+0000
1.069 km
极远距离
1.006319E-5 中风险 0.55
CDM_260906-151705-840406-341221
2026-09-06T
15:17:52+0000
1.240 km
极远距离
6.062155E-6 低风险 0.51
CDM_260905-143005-840406-435321
2026-09-05T
14:30:08+0000
1.794 km
极远距离
3.485576E-6 低风险 0.46
CDM_260906-134305-840406-341221
2026-09-06T
13:43:43+0000
1.655 km
极远距离
2.419456E-6 低风险 0.43
CDM_260830-181003-305305-840423
GLAST (33053)
2026-08-30T
18:10:25+0000
1.786 km
极远距离
2.38307E-6 低风险 0.43
CDM_260905-090105-322805-840421
2026-09-05T
09:01:52+0000
2.830 km
极远距离
1.41639E-6 低风险 0.38
CDM_260906-015705-840406-341221
2026-09-06T
01:57:33+0000
2.799 km
极远距离
7.950421E-7 极低风险 0.33
CDM_260906-064005-840406-341221
2026-09-06T
06:40:01+0000
2.903 km
极远距离
7.601636E-7 极低风险 0.33